TimeEDT,TemperatureF,Dew PointF,Humidity,Sea Level PressureIn,VisibilityMPH,Wind Direction,Wind SpeedMPH,Gust SpeedMPH,PrecipitationIn,Events,Conditions,WindDirDegrees,DateUTC
12:51 AM,63.0,53.1,70,30.22,10.0,SE,3.5,-,N/A,,Clear,130,2013-08-24 04:51:00
1:51 AM,60.1,52.0,75,30.22,10.0,Calm,Calm,-,N/A,,Clear,0,2013-08-24 05:51:00
2:51 AM,59.0,53.1,81,30.23,10.0,SSE,3.5,-,N/A,,Clear,160,2013-08-24 06:51:00
3:51 AM,59.0,53.1,81,30.24,10.0,South,3.5,-,N/A,,Clear,170,2013-08-24 07:51:00
4:51 AM,60.1,52.0,75,30.25,10.0,Calm,Calm,-,N/A,,Clear,0,2013-08-24 08:51:00
5:51 AM,55.9,52.0,87,30.26,10.0,Calm,Calm,-,N/A,,Clear,0,2013-08-24 09:51:00
6:51 AM,57.0,52.0,83,30.28,10.0,Calm,Calm,-,N/A,,Clear,0,2013-08-24 10:51:00
7:51 AM,61.0,55.0,81,30.31,10.0,Calm,Calm,-,N/A,,Clear,0,2013-08-24 11:51:00
8:51 AM,68.0,55.9,65,30.32,10.0,Calm,Calm,-,N/A,,Clear,0,2013-08-24 12:51:00
9:51 AM,73.0,54.0,51,30.32,10.0,Calm,Calm,-,N/A,,Clear,0,2013-08-24 13:51:00
10:51 AM,77.0,51.1,40,30.33,10.0,East,9.2,-,N/A,,Clear,100,2013-08-24 14:51:00
11:51 AM,78.1,52.0,40,30.34,10.0,East,5.8,-,N/A,,Partly Cloudy,80,2013-08-24 15:51:00
12:51 PM,79.0,53.1,40,30.32,10.0,NE,8.1,17.3,N/A,,Partly Cloudy,40,2013-08-24 16:51:00
1:51 PM,79.0,54.0,42,30.32,10.0,North,13.8,-,N/A,,Partly Cloudy,10,2013-08-24 17:51:00
2:51 PM,80.1,54.0,40,30.31,10.0,NNE,13.8,-,N/A,,Clear,20,2013-08-24 18:51:00
3:51 PM,79.0,52.0,39,30.30,10.0,North,13.8,-,N/A,,Clear,10,2013-08-24 19:51:00
4:51 PM,78.1,51.1,39,30.30,10.0,NE,13.8,-,N/A,,Clear,40,2013-08-24 20:51:00
5:51 PM,77.0,52.0,42,30.30,10.0,NNE,12.7,-,N/A,,Clear,30,2013-08-24 21:51:00
6:51 PM,75.0,54.0,48,30.30,10.0,NNE,10.4,-,N/A,,Clear,30,2013-08-24 22:51:00
7:51 PM,72.0,55.0,55,30.30,10.0,NNE,11.5,-,N/A,,Partly Cloudy,30,2013-08-24 23:51:00
8:51 PM,69.1,57.0,65,30.31,10.0,NNE,8.1,-,N/A,,Partly Cloudy,30,2013-08-25 00:51:00
9:51 PM,69.1,57.9,68,30.32,10.0,NNE,5.8,-,N/A,,Clear,30,2013-08-25 01:51:00
10:51 PM,68.0,55.9,65,30.31,10.0,East,4.6,-,N/A,,Partly Cloudy,90,2013-08-25 02:51:00
11:51 PM,66.0,57.0,73,30.31,10.0,Calm,Calm,-,N/A,,Partly Cloudy,0,2013-08-25 03:51:00